Wind_Speed
17 16 15 15 15 15 15 15 15 14 14 14 13 13 13 12 12 11 11 10 10 9 9 9 9 8 7 7 6 6 5 5 5 4 3 3 2 2 2 2 3 4 4
19 18 17 17 16 16 17 17 16 16 16 15 15 15 14 14 13 13 13 12 12 11 10 10 10 9 9 8 8 7 7 6 6 5 4 4 3 3 3 3 4 4 4
20 20 20 19 19 18 18 18 18 18 17 17 16 16 15 15 15 14 14 14 14 13 12 12 11 10 10 10 9 8 8 7 7 6 6 5 5 4 4 4 4 5 5
21 22 22 21 21 21 20 20 20 19 19 18 18 17 17 17 16 16 16 16 15 15 14 14 13 12 11 10 10 9 9 9 8 7 7 6 6 5 5 5 5 6 6
22 23 23 23 23 22 22 22 22 21 20 20 19 19 18 18 18 17 17 17 17 16 16 15 15 13 13 12 11 11 10 10 9 9 8 7 7 6 6 6 6 7 7
23 23 24 24 24 23 24 24 23 22 22 21 21 20 20 19 19 19 18 18 18 18 17 17 16 15 14 13 12 12 11 11 10 10 9 9 8 8 7 7 8 8 8
25 25 25 25 25 24 24 24 24 23 23 23 22 22 21 20 20 20 20 19 19 19 19 19 18 17 16 15 14 14 13 12 11 11 11 11 10 9 9 9 9 9 9
27 27 27 26 26 25 24 25 25 25 24 23 23 23 23 22 21 20 21 21 20 20 20 20 20 19 18 17 16 15 14 13 13 13 13 12 12 11 11 10 10 11 11
29 28 28 28 27 27 26 25 25 25 25 25 24 24 24 24 23 22 22 22 22 22 21 21 21 20 19 18 17 17 16 15 15 14 14 13 13 12 12 12 12 12 12
31 30 30 30 29 28 27 27 26 26 26 26 25 25 24 24 24 23 24 24 24 23 23 23 22 21 21 20 19 18 18 17 16 16 15 15 15 14 14 13 14 14 14
33 32 32 32 31 29 28 28 27 27 27 27 26 26 26 25 25 25 25 25 25 25 24 24 24 23 22 21 20 19 19 18 18 17 17 17 16 16 15 15 15 16 16
33 33 33 34 33 32 31 30 29 28 28 28 28 28 27 27 26 25 25 26 26 26 26 25 26 25 24 23 22 22 20 20 20 19 18 18 18 18 17 17 17 17 18
33 33 34 34 34 34 33 32 31 30 30 29 29 29 28 28 28 27 26 26 27 27 26 26 26 27 26 25 24 23 22 21 21 21 20 19 20 20 20 19 19 20 19
34 34 34 35 35 35 34 34 32 32 31 30 30 30 30 29 29 28 28 27 27 27 27 27 27 27 28 27 26 24 24 23 23 22 22 21 21 21 21 21 21 21 21
34 34 35 35 36 36 35 35 33 32 32 31 31 31 31 31 30 29 29 28 28 28 28 28 28 28 28 28 27 26 25 25 24 23 23 23 23 23 23 23 23 22 22
35 34 36 36 36 37 37 36 35 34 33 32 32 32 32 31 30 29 29 29 29 29 29 29 29 29 29 29 28 28 27 26 26 25 25 25 25 25 25 24 24 23 23
35 34 36 36 36 37 38 38 37 36 35 34 33 33 33 32 30 30 30 31 30 30 30 30 30 30 30 30 30 29 29 28 27 27 26 26 26 26 26 26 25 25 25
35 35 36 37 36 37 39 39 39 38 37 36 35 34 34 33 31 31 31 31 32 31 31 31 32 32 32 32 31 31 30 31 29 29 29 28 28 27 27 27 27 27 27
35 36 36 37 37 37 39 40 40 40 39 37 37 37 36 35 33 31 31 32 32 33 33 33 33 33 33 33 32 31 32 32 32 31 31 30 30 29 29 29 30 30 29
35 35 37 38 38 38 39 40 42 41 41 40 39 39 38 36 34 32 32 31 31 33 34 34 34 34 34 33 33 32 32 33 33 34 33 32 32 32 31 31 31 32 32
35 35 35 37 38 39 39 40 41 41 42 41 41 40 40 38 36 34 34 33 33 33 34 35 35 35 34 34 35 34 34 34 34 34 34 34 34 34 34 34 34 34 34
34 36 36 38 39 39 39 40 41 42 42 42 41 40 41 40 38 37 36 36 35 34 35 36 37 37 37 37 37 37 37 37 36 36 36 36 36 36 36 36 36 36 36
33 35 36 38 39 40 40 41 40 41 42 43 42 42 41 41 39 38 38 38 38 37 37 37 38 38 39 40 40 39 39 39 38 38 37 37 37 37 37 37 37 38 38
33 34 35 37 38 39 40 42 41 41 41 43 43 44 43 43 42 40 39 39 39 39 39 39 38 39 40 41 41 41 41 41 40 39 39 39 39 39 39 39 39 39 39
33 34 34 36 37 38 40 41 42 41 40 41 42 44 44 44 44 42 40 40 40 40 40 40 39 40 40 41 41 42 42 42 42 41 41 41 42 41 41 40 40 41 41
32 32 33 35 37 38 40 41 41 41 40 41 42 42 43 43 43 43 41 41 41 42 42 42 41 41 41 42 43 43 43 43 42 42 42 43 43 43 43 43 43 43 43
Wind_Direction
245 244 242 241 240 238 238 238 238 238 238 239 240 242 242 241 241 239 236 233 232 231 229 226 220 220 219 221 226 228 224 226 226 227 236 249 262 281 299 313 324 330 334
246 246 243 241 240 238 238 238 239 240 240 239 240 243 244 243 243 241 238 235 234 233 232 232 228 227 227 229 231 234 234 231 233 237 242 252 262 273 289 301 309 318 325
246 246 244 242 241 240 239 237 238 241 241 240 241 244 245 245 244 243 240 237 236 235 235 236 235 233 232 233 235 237 240 237 238 242 246 251 259 267 278 293 301 308 315
246 247 246 244 242 241 240 239 238 240 241 243 242 244 246 246 245 244 243 239 237 237 237 237 237 237 236 236 237 241 245 244 244 246 249 252 257 263 276 288 295 303 309
246 247 248 246 244 242 241 241 240 240 242 243 244 245 246 247 245 244 243 240 238 238 238 239 237 237 238 239 241 244 246 248 247 248 251 252 255 261 272 282 290 298 303
247 246 247 246 244 243 242 242 241 242 243 244 245 245 246 246 244 242 242 240 239 239 239 238 239 239 239 240 243 245 248 250 249 251 252 254 258 263 271 279 286 291 295
246 246 246 246 244 242 241 241 242 242 243 245 246 246 246 244 242 240 240 241 240 239 239 238 239 240 240 240 242 244 248 251 252 252 253 255 259 265 270 275 282 287 290
246 245 246 245 243 242 242 242 243 244 243 245 246 246 244 242 241 241 241 241 241 240 238 238 238 239 240 240 241 244 247 250 253 254 254 256 260 264 268 274 280 284 288
246 244 245 245 244 243 243 242 242 243 243 243 245 245 242 241 242 241 242 243 243 243 241 239 239 240 239 241 243 244 247 250 253 255 255 256 259 263 268 273 278 282 285
247 244 243 244 244 243 243 242 241 242 243 243 244 242 240 241 242 242 243 244 244 243 242 241 239 239 239 240 244 247 248 250 253 254 256 258 260 263 267 272 277 282 285
248 245 243 243 243 243 242 242 241 242 243 242 242 241 240 242 243 244 244 245 244 244 244 242 240 239 239 241 244 246 249 250 252 254 256 258 261 264 267 271 276 281 284
247 245 243 242 242 242 241 241 241 242 243 243 242 241 240 241 243 245 245 245 244 244 244 244 241 238 238 240 243 246 249 251 252 254 257 259 262 265 268 271 275 280 283
246 245 243 241 241 241 240 239 241 243 244 243 242 241 241 242 243 245 247 245 245 245 244 244 241 238 238 240 243 245 248 251 254 254 256 259 262 265 268 272 276 279 281
245 245 243 240 240 240 239 238 240 241 242 243 242 241 242 243 244 246 247 246 245 245 245 243 242 240 239 241 243 245 247 250 253 255 256 259 264 267 269 272 275 279 281
244 243 242 240 239 238 237 237 238 240 241 242 241 240 242 244 245 246 247 247 247 246 245 243 242 243 241 242 243 245 247 250 252 256 259 260 263 267 270 272 275 277 280
244 242 241 240 239 238 236 236 237 239 239 240 240 240 241 244 245 246 247 247 248 248 247 244 243 245 243 243 244 247 248 251 253 255 259 260 263 268 272 274 275 277 280
244 242 240 239 239 238 236 235 236 238 239 239 239 240 241 242 244 246 246 247 248 249 249 247 245 246 245 244 245 247 249 251 253 255 259 261 264 267 270 273 275 276 279
246 243 241 239 239 239 237 236 236 237 239 239 238 239 241 241 242 245 246 247 248 249 249 249 248 246 246 246 247 248 250 252 253 256 259 261 263 267 269 271 273 275 278
248 245 242 241 241 240 238 237 237 238 238 239 238 237 239 241 242 244 246 247 248 248 248 249 250 249 246 247 248 249 250 252 254 257 259 262 263 267 269 271 273 275 277
249 247 244 242 242 241 239 238 237 239 239 240 239 238 238 240 241 243 246 248 249 249 247 247 248 248 247 248 249 250 252 253 255 258 260 262 264 266 269 270 272 274 275
248 249 246 244 244 242 241 240 239 240 240 241 240 240 239 239 241 243 245 248 249 249 248 248 247 249 250 250 251 253 253 255 256 259 260 262 264 266 268 270 272 274 275
249 249 246 246 246 245 242 241 239 239 240 239 240 240 240 241 243 245 245 247 249 250 251 251 250 252 253 253 254 256 256 257 257 259 261 263 264 266 267 269 271 273 274
251 251 250 246 245 246 244 241 240 239 240 240 240 240 242 242 245 247 248 249 249 250 252 253 252 252 253 253 254 256 257 258 259 260 262 264 264 265 267 270 271 272 274
254 253 251 247 246 246 245 242 241 241 240 241 241 241 243 244 246 248 249 249 250 250 251 252 253 253 254 254 254 255 257 259 260 261 262 263 265 266 268 270 271 272 273
255 254 252 248 246 245 244 242 241 241 240 241 241 242 242 244 244 247 250 250 250 251 253 253 254 254 254 254 254 255 257 258 260 262 261 263 264 267 269 270 271 271 272
256 255 254 250 246 245 242 240 240 241 241 242 242 242 242 243 245 246 250 250 251 252 253 254 253 253 254 254 255 255 257 258 259 260 261 263 264 266 269 270 271 271 271
Height
5848 5849 5850 5851 5852 5852 5853 5854 5855 5856 5857 5857 5858 5859 5860 5860 5861 5862 5862 5863 5864 5864 5865 5865 5866 5866 5866 5867 5867 5867 5867 5867 5867 5867 5867 5867 5866 5866 5865 5865 5865 5864 5863
5845 5846 5847 5848 5849 5849 5850 5851 5852 5853 5854 5855 5856 5857 5857 5858 5859 5860 5860 5861 5862 5863 5863 5864 5864 5865 5865 5865 5866 5866 5866 5866 5866 5866 5866 5866 5865 5865 5865 5864 5864 5863 5862
5841 5842 5843 5844 5845 5846 5847 5848 5849 5850 5851 5852 5853 5854 5855 5855 5856 5857 5858 5859 5860 5861 5861 5862 5862 5863 5863 5864 5864 5864 5865 5865 5865 5865 5865 5865 5864 5864 5864 5863 5863 5862 5862
5837 5838 5839 5840 5841 5842 5843 5845 5846 5847 5848 5849 5850 5851 5851 5852 5853 5854 5854 5855 5857 5858 5859 5860 5860 5861 5862 5862 5863 5863 5863 5863 5863 5863 5863 5863 5863 5863 5862 5862 5861 5861 5860
5832 5833 5834 5836 5837 5838 5839 5840 5842 5843 5844 5845 5846 5847 5848 5848 5849 5850 5851 5852 5853 5855 5856 5857 5858 5859 5860 5860 5861 5861 5861 5861 5862 5862 5862 5862 5862 5861 5861 5861 5860 5860 5859
5827 5828 5829 5830 5832 5833 5834 5836 5837 5839 5840 5841 5842 5843 5844 5844 5845 5846 5847 5848 5849 5851 5853 5854 5855 5856 5857 5858 5858 5859 5859 5859 5860 5860 5860 5860 5860 5860 5859 5859 5858 5858 5857
5821 5822 5824 5825 5826 5828 5829 5831 5832 5834 5836 5837 5838 5839 5839 5840 5841 5842 5843 5844 5846 5847 5849 5850 5852 5853 5854 5855 5856 5856 5857 5857 5858 5858 5858 5858 5858 5858 5857 5857 5856 5856 5855
5815 5817 5818 5819 5821 5823 5824 5826 5827 5829 5831 5832 5833 5833 5834 5835 5837 5838 5840 5841 5842 5843 5845 5846 5848 5850 5851 5852 5853 5853 5854 5855 5855 5855 5855 5855 5855 5855 5855 5855 5854 5853 5853
5808 5810 5812 5813 5815 5817 5819 5820 5822 5824 5825 5827 5828 5829 5830 5831 5832 5834 5835 5837 5838 5839 5840 5842 5844 5845 5847 5848 5849 5850 5851 5852 5852 5852 5853 5853 5853 5852 5852 5852 5851 5851 5850
5800 5803 5805 5807 5809 5811 5813 5815 5816 5818 5820 5821 5822 5823 5825 5826 5828 5829 5831 5832 5833 5835 5836 5837 5839 5841 5843 5844 5846 5846 5847 5848 5849 5849 5849 5850 5850 5850 5849 5849 5849 5848 5847
5793 5796 5798 5800 5803 5805 5807 5809 5811 5812 5814 5815 5817 5818 5820 5822 5823 5824 5826 5827 5828 5830 5831 5833 5834 5836 5838 5840 5841 5842 5843 5844 5845 5845 5846 5846 5846 5846 5846 5846 5845 5845 5844
5785 5788 5791 5793 5796 5798 5801 5803 5805 5807 5808 5810 5811 5813 5815 5816 5818 5819 5821 5822 5823 5825 5826 5828 5829 5831 5833 5835 5836 5838 5839 5840 5841 5842 5842 5843 5843 5843 5842 5842 5842 5841 5841
5776 5779 5783 5786 5788 5791 5794 5796 5798 5800 5802 5804 5806 5808 5809 5811 5813 5814 5815 5817 5818 5819 5821 5823 5824 5826 5828 5830 5832 5833 5835 5835 5837 5837 5838 5838 5838 5838 5838 5838 5838 5838 5837
5768 5771 5774 5777 5780 5783 5786 5789 5791 5793 5796 5798 5800 5802 5804 5805 5807 5809 5810 5811 5812 5814 5815 5817 5819 5821 5823 5825 5826 5828 5830 5831 5832 5832 5833 5834 5834 5834 5834 5834 5834 5833 5833
5759 5762 5765 5768 5772 5775 5778 5781 5784 5786 5789 5791 5793 5795 5797 5799 5801 5803 5804 5805 5806 5808 5810 5811 5813 5815 5817 5819 5821 5823 5825 5826 5827 5827 5828 5829 5829 5829 5829 5829 5829 5828 5828
5750 5752 5756 5760 5763 5767 5770 5773 5776 5779 5781 5783 5786 5788 5790 5793 5795 5796 5798 5799 5801 5802 5804 5806 5808 5810 5812 5813 5815 5817 5819 5820 5821 5822 5823 5824 5824 5824 5824 5824 5824 5823 5823
5741 5743 5747 5751 5754 5758 5761 5764 5768 5771 5773 5775 5778 5781 5784 5786 5788 5790 5791 5793 5794 5796 5798 5800 5801 5803 5805 5807 5809 5811 5812 5814 5815 5816 5817 5818 5818 5819 5819 5819 5818 5818 5817
5732 5734 5738 5741 5744 5748 5752 5756 5759 5762 5765 5767 5770 5773 5776 5779 5782 5783 5785 5786 5788 5790 5791 5793 5795 5797 5799 5801 5803 5805 5806 5808 5809 5810 5811 5812 5812 5812 5812 5812 5812 5812 5811
5724 5726 5728 5732 5735 5739 5742 5746 5750 5753 5756 5759 5762 5765 5768 5771 5774 5776 5778 5780 5781 5783 5785 5786 5788 5790 5792 5794 5796 5798 5799 5801 5802 5803 5804 5805 5805 5806 5806 5806 5806 5805 5805
5715 5717 5720 5723 5726 5729 5732 5736 5740 5744 5747 5750 5753 5756 5760 5763 5766 5768 5771 5772 5774 5775 5777 5779 5781 5783 5784 5787 5789 5790 5792 5794 5795 5796 5797 5797 5798 5798 5799 5799 5798 5798 5798
5707 5709 5711 5714 5716 5719 5722 5726 5730 5734 5738 5741 5744 5747 5751 5754 5757 5760 5762 5765 5766 5768 5770 5771 5773 5775 5777 5779 5781 5783 5784 5786 5787 5788 5789 5790 5790 5790 5791 5791 5790 5790 5790
5698 5700 5702 5705 5707 5709 5712 5716 5719 5723 5727 5730 5734 5737 5741 5745 5748 5751 5753 5756 5758 5760 5761 5763 5765 5767 5769 5770 5773 5774 5776 5778 5778 5779 5780 5781 5782 5782 5782 5782 5782 5782 5781
5689 5691 5693 5695 5697 5699 5702 5705 5709 5713 5716 5720 5724 5728 5732 5736 5739 5742 5744 5747 5749 5751 5753 5755 5756 5758 5760 5762 5764 5766 5767 5768 5770 5771 5771 5772 5773 5773 5774 5774 5773 5773 5772
5681 5682 5683 5685 5687 5690 5693 5695 5699 5703 5706 5711 5715 5719 5722 5726 5729 5732 5734 5737 5740 5742 5744 5746 5747 5749 5751 5753 5755 5756 5758 5759 5760 5762 5762 5763 5763 5764 5764 5764 5764 5763 5763
5672 5673 5674 5675 5678 5680 5683 5685 5689 5692 5696 5700 5704 5708 5712 5716 5719 5722 5724 5727 5730 5732 5734 5736 5737 5739 5741 5743 5744 5746 5747 5749 5750 5751 5753 5753 5753 5753 5754 5753 5753 5753 5753
5663 5664 5665 5666 5668 5670 5673 5675 5679 5682 5686 5689 5693 5698 5702 5706 5709 5712 5714 5717 5719 5721 5723 5725 5727 5729 5731 5732 5734 5735 5737 5738 5740 5740 5741 5742 5743 5743 5743 5743 5743 5742 5742